Torna al catalogo

COSMOS 2554

AttivoNavigazioneLEO
NORAD 52202·PAYLOAD·🇷🇺 Russia

Lanciato Apr 7, 2022 da Plesetsk Cosmodrome

Loading…

Prossimi Passaggi (prossime 24 ore)

TLE

AggiornatoSource: Space-Track

Epoca: Sep 14, 2026, 22:14 UTC

1 52202U 22036A   26257.92647137 -.00000057  00000-0  13014-4 0  9991
2 52202  67.1507  10.5833 0004932 273.9730  86.0790 13.96673652226488

Traccia COSMOS 2554 in tempo reale con AllMySat

Download on the App Store